www.pogodaiklimat.ru

Погода и климат >> Архив погоды >> Австрия >> Кляйнциккен


ПОГОДА в Кляйнциккене

  • Прогноз погоды в Кляйнциккене
  • Монитор погоды в Кляйнциккене

АРХИВ ПОГОДЫ в Кляйнциккене

Время (UTC), дата Ветер
(напр.,м/с)
 
Видим.   Явления Облачность Т
(С)
Тd
(С)
f
(%)
Тe
(С)
Тes
(С)
Комфортность P
(гПа)
Po
(гПа)
Тmin
(С)
Tmax
(С)
R
(мм)
R24
(мм)
S
(см)
07 9.07 ЮВ 1 н/о н/о +17.6 +12.7 73 +19 +19 1016.5 985.4
08 9.07 ЮЗ 1 н/о н/о +18.3 +12.5 69 +20 +20 1015.9 984.9
09 9.07 ЮЗ 2 н/о н/о +18.0 +11.7 67 +19 +19 1016.2 985.1
10 9.07 З 1 н/о н/о +18.1 +12.4 69 +19 +19 1016.0 984.9
11 9.07 ЮЗ 1 н/о н/о +18.8 +11.5 63 +21 +21 комфорт 1015.7 984.7
12 9.07 Ю 1 20 км 10/10 1500 м
[Sc]
+19.8 +10.6 55 +22 +22 комфорт 1015.4 984.5
13 9.07 СВ 1 н/о н/о +20.7 +10.6 52 +24 +24 комфорт 1014.6 983.8
14 9.07 С 1 н/о осадки н/о +16.5 +14.5 88 +17 +17 1015.9 984.7 3
15 9.07 В 2 н/о в посл. час осадки н/о +16.4 +13.1 81 +17 +17 1015.4 984.2 4
16 9.07 Ю 1 н/о н/о +18.2 +13.7 75 +20 +20 1014.5 983.5
17 9.07 Ю 2 н/о н/о +18.2 +14.5 79 +19 +19 1014.3 983.3
18 9.07 СЗ 1 н/о {осадки} н/о +17.7 +15.2 85 +19 +19 1014.2 983.2 +15.4 +21.4 4
19 9.07 СЗ 1 н/о н/о +16.1 +14.6 91 +17 +17 1015.0 983.8
20 9.07 ЮВ 1 н/о н/о +14.4 +13.4 94 +15 +15 1016.4 984.9
21 9.07 З 1 н/о н/о +13.2 +12.5 96 +13 +13 1016.4 984.8
22 9.07 штиль 0 н/о н/о +12.7 +12.0 96 +12 +12 1016.3 984.6
23 9.07 СЗ 1 н/о н/о +12.3 +11.7 96 +12 +12 1016.8 985.1
00 10.07 С 2 н/о н/о +11.2 +10.5 95 +10 +10 1017.0 985.1
01 10.07 штиль 0 н/о н/о +10.3 +9.2 93 +10 +10 1017.1 985.1
02 10.07 Ю 1 н/о н/о +9.1 +8.1 93 +8 +8 1017.0 984.9
03 10.07 ЮВ 1 н/о н/о +9.9 +9.2 95 +9 +9 1016.9 984.9
04 10.07 Ю 1 н/о н/о +10.2 +9.5 95 +10 +10 1017.2 985.2
05 10.07 штиль 0 н/о н/о +12.0 +11.2 95 +11 +11 1017.1 985.3
06 10.07 С 3 н/о н/о +16.0 +7.8 58 +16 +16 1016.7 985.3 +9.0 +17.9
07 10.07 С 6 н/о н/о +17.4 +5.5 45 +17 +17 1016.5 985.3
08 10.07 С 3 н/о н/о +18.8 +6.1 43 +19 +19 1016.9 985.8
09 10.07 С 4 н/о н/о +19.5 +5.6 40 +20 +20 1016.6 985.6
10 10.07 СВ 4 н/о н/о +19.6 +5.7 40 +20 +20 1016.3 985.3
11 10.07 С 4 н/о н/о +20.4 +5.5 38 +21 +21 комфорт 1016.0 985.1
12 10.07 С 4 40 км 5/5 1500 м
[Cu med, cong]
+22.3 +5.8 34 +23 +29 комфорт 1015.3 984.6
13 10.07 С 5 н/о н/о +22.4 +5.7 34 +23 +23 комфорт 1015.0 984.3
14 10.07 С 4 н/о н/о +22.7 +5.3 32 +23 +23 комфорт 1014.7 984.1
15 10.07 С 5 н/о н/о +22.5 +5.2 32 +23 +23 комфорт 1014.4 983.8
16 10.07 С 5 н/о н/о +22.4 +5.4 33 +23 +23 комфорт 1014.2 983.6
17 10.07 С 4 н/о н/о +22.0 +5.5 34 +22 +22 комфорт 1014.4 983.7
18 10.07 С 3 40 км 1/1 1500 м
[Sc diur, vesp Ci fib]
+20.9 +5.2 36 +22 +22 комфорт 1014.6 983.8 +15.0 +23.5
19 10.07 С 1 н/о н/о +18.1 +6.3 46 +19 +19 1015.4 984.3
20 10.07 СЗ 1 н/о н/о +15.6 +7.5 59 +16 +16 1016.2 984.8
21 10.07 С 2 н/о н/о +12.7 +7.9 73 +12 +12 1016.8 985.1
22 10.07 С 1 н/о н/о +11.0 +7.6 80 +11 +11 1017.1 985.2
23 10.07 З 1 н/о н/о +9.3 +7.7 90 +9 +9 1017.0 984.9
00 11.07 Ю 1 н/о н/о +9.4 +7.6 89 +9 +9 1017.0 984.9
01 11.07 ЮВ 1 н/о н/о +8.6 +7.1 90 +8 +8 1016.7 984.5
02 11.07 С 1 н/о н/о +8.1 +6.8 91 +7 +7 1016.3 984.1
03 11.07 ЮВ 1 н/о н/о +7.9 +6.8 93 +7 +7 1016.0 983.8
04 11.07 В 1 н/о н/о +8.7 +7.7 93 +8 +8 1015.9 983.8
05 11.07 ЮВ 1 40 км 3/1 1500 м
[Sc diur, vesp Ac cuf]
+11.3 +8.8 85 +11 +13 1015.5 983.7
06 11.07 штиль 0 н/о н/о +14.1 +10.0 76 +14 +14 1015.2 983.7 +7.3 +21.1
07 11.07 ЮЗ 1 н/о н/о +17.4 +9.1 58 +18 +18 1014.7 983.6
08 11.07 Ю 1 н/о н/о +21.5 +10.6 50 +23 +23 комфорт 1014.1 983.4
09 11.07 СЗ 2 н/о н/о +22.2 +6.8 37 +23 +23 комфорт 1013.9 983.3
10 11.07 штиль 0 н/о н/о +22.4 +7.6 39 +23 +23 комфорт 1013.7 983.1
11 11.07 СЗ 1 н/о н/о +24.6 +9.5 38 +25 +25 комфорт 1013.0 982.7
12 11.07 З 2 н/о н/о +23.3 +7.1 35 +24 +24 комфорт 1012.8 982.3
13 11.07 В 1 н/о н/о +24.7 +7.7 34 +25 +25 комфорт 1012.1 981.8
14 11.07 З 1 н/о н/о +25.2 +7.6 33 +25 +25 комфорт 1011.9 981.6
15 11.07 СЗ 2 н/о н/о +23.7 +8.4 38 +24 +24 комфорт 1011.8 981.4
16 11.07 СЗ 1 н/о н/о +23.8 +8.3 37 +24 +24 комфорт 1011.6 981.2
17 11.07 С 1 н/о н/о +24.6 +7.5 34 +25 +25 комфорт 1011.5 981.2
18 11.07 С 1 30 км 4/3 1500 м
[Sc diur, vesp Ac cuf Ci fib]
+23.1 +8.4 39 +24 +25 комфорт 1011.8 981.3 +12.6 +25.3
19 11.07 В 2 н/о н/о +20.2 +8.3 46 +22 +22 комфорт 1012.4 981.6
20 11.07 СВ 1 н/о н/о +19.1 +9.6 54 +21 +21 комфорт 1013.0 982.1
21 11.07 С 1 н/о н/о +17.9 +12.3 70 +19 +19 1013.4 982.4
22 11.07 СЗ 1 н/о н/о +16.9 +13.1 78 +18 +18 1013.7 982.6
23 11.07 штиль 0 н/о н/о +16.6 +13.6 82 +16 +16 1013.7 982.6
00 12.07 СЗ 1 н/о н/о +16.9 +12.6 76 +18 +18 1013.4 982.3
01 12.07 штиль 0 н/о н/о +16.4 +12.8 79 +16 +16 1013.2 982.0
02 12.07 СЗ 1 н/о осадки н/о +16.2 +13.6 85 +17 +17 1013.5 982.3 0.0
03 12.07 С 1 н/о осадки н/о +15.4 +13.7 90 +16 +16 1013.5 982.2 0.2
04 12.07 штиль 0 н/о н/о +15.1 +13.9 93 +15 +15 1013.6 982.3 0.0
05 12.07 СЗ 1 12 км слаб. дождь 10/10 1000 м
[Sc]
+15.5 +14.0 91 +16 +16 1013.8 982.5 0.0
06 12.07 СЗ 3 н/о в посл. час осадки {ливн. осадки} н/о +15.8 +13.8 88 +15 +15 1014.1 982.9 +15.0 +23.4 0.6
07 12.07 СЗ 1 н/о ливневой дождь н/о +16.0 +14.6 91 +17 +17 1014.4 983.2 1
08 12.07 СЗ 2 н/о осадки н/о +16.6 +14.5 87 +17 +17 1014.4 983.2 0.4
09 12.07 З 1 н/о в посл. час осадки {ливн. осадки} н/о +17.3 +14.7 85 +18 +18 1014.2 983.1 2
10 12.07 ЮВ 1 н/о н/о +19.3 +14.3 73 +22 +22 комфорт 1013.8 982.9
11 12.07 Ю 2 н/о н/о +21.2 +14.6 66 +24 +24 комфорт 1012.9 982.3
12 12.07 ЮВ 1 25 км гроза без осадков 9/9 600 м
[Cb calv]
+21.5 +14.1 63 +24 +26 комфорт 1012.2 981.6 2
13 12.07 В 3 н/о ливневой дождь н/о +22.2 +13.9 59 +25 +25 комфорт 1011.5 981.0 0.2
14 12.07 ЮВ 2 н/о н/о +24.8 +14.6 53 +27 +27 жарко 1010.5 980.3
15 12.07 Ю 3 н/о осадки {ливн. осадки} н/о +19.4 +16.5 83 +22 +22 комфорт 1011.6 980.8 4
16 12.07 Ю 2 н/о в посл. час осадки н/о +21.6 +15.8 70 +25 +25 комфорт 1010.2 979.7 0.2
17 12.07 ЮВ 2 н/о н/о +20.3 +17.0 81 +24 +24 комфорт 1010.6 980.0
18 12.07 СВ 3 20 км слаб. ливневой дождь {гроза} 8/8 600 м
[Cb calv]
+16.4 +13.6 84 +16 +16 1011.8 980.7 +15.6 +24.8 7
19 12.07 штиль 0 н/о в посл. час осадки н/о +16.4 +14.7 90 +16 +16 1012.1 981.0 0.1
20 12.07 ЮВ 1 н/о в посл. час осадки н/о +16.2 +14.9 92 +17 +17 1012.2 981.1 1
21 12.07 Ю 1 н/о {ливн. осадки} н/о +16.2 +14.9 92 +17 +17 1012.7 981.6 1
22 12.07 С 1 н/о н/о +16.0 +15.0 94 +17 +17 1012.5 981.3 0.0
23 12.07 З 1 н/о н/о +15.3 +14.6 96 +16 +16 1012.4 981.2
00 13.07 С 1 н/о {ливн. осадки} н/о +14.8 +14.1 96 +15 +15 1011.7 980.4 1
01 13.07 З 1 н/о н/о +14.0 +13.6 97 +14 +14 1011.2 979.9
02 13.07 Ю 1 н/о н/о +13.4 +13.0 97 +13 +13 1011.1 979.7
03 13.07 СЗ 1 н/о осадки н/о +14.0 +13.6 97 +14 +14 1011.2 979.9 0.1
04 13.07 З 1 н/о в посл. час осадки н/о +14.7 +14.2 97 +15 +15 1011.1 979.8 0.4
05 13.07 В 2 15 км слаб. ливневой дождь 9/9 600 м
[Cu Sc]
+14.8 +14.1 96 +14 +15 1010.9 979.7 2
06 13.07 штиль 0 н/о {ливн. осадки} н/о +15.9 +14.6 92 +16 +16 1010.9 979.8 +13.2 +16.7 4
07 13.07 С 1 н/о н/о +17.0 +15.4 90 +18 +18 1011.3 980.3
08 13.07 В 1 н/о н/о +17.9 +15.2 84 +19 +19 1011.2 980.3 0.0
09 13.07 ЮВ 2 н/о н/о +18.1 +13.7 75 +19 +19 1011.9 981.0 0.0
10 13.07 Ю 1 н/о н/о +19.4 +14.1 71 +22 +22 комфорт 1011.8 981.0
11 13.07 З 1 н/о н/о +21.3 +13.8 62 +24 +24 комфорт 1011.0 980.4
12 13.07 СЗ 5 40 км {ливн. осадки} 9/9 1000 м
[Cu Sc]
+21.1 +9.5 47 +22 +23 комфорт 1011.0 980.4 0.0
14 13.07 СЗ 4 н/о н/о +22.5 +10.0 45 +24 +24 комфорт 1010.3 979.8
15 13.07 С 4 н/о н/о +23.2 +11.0 46 +25 +25 комфорт 1010.3 979.9
17 13.07 С 4 н/о н/о +20.8 +10.8 53 +23 +23 комфорт 1011.2 980.5
18 13.07 СЗ 2 40 км 9/9 1000 м
[Cu Sc]
+20.0 +11.4 58 +22 +22 комфорт 1011.2 980.5 +15.8 +23.6 0.0
19 13.07 СЗ 2 н/о н/о +18.9 +11.3 61 +20 +20 1011.8 980.9
20 13.07 СЗ 1 н/о н/о +15.9 +12.0 78 +17 +17 1012.3 981.1
21 13.07 В 1 н/о н/о +14.4 +11.8 84 +15 +15 1012.8 981.4
22 13.07 ЮВ 1 н/о н/о +13.6 +11.6 88 +14 +14 1013.1 981.6
23 13.07 В 1 н/о н/о +13.5 +11.2 86 +14 +14 1013.0 981.5
00 14.07 В 1 н/о н/о +13.2 +10.8 85 +13 +13 1012.7 981.2
01 14.07 З 1 н/о н/о +12.0 +10.6 91 +12 +12 1012.6 981.0
02 14.07 В 1 н/о н/о +11.7 +10.4 92 +11 +11 1012.6 980.9
03 14.07 ЮВ 1 н/о н/о +11.1 +9.7 91 +11 +11 1012.7 981.0
04 14.07 штиль 0 н/о н/о +11.4 +10.2 92 +11 +11 1013.0 981.3
05 14.07 СВ 1 20 км 3/1 1500 м
[Sc diur, vesp Ac cuf Ci fib]
+12.8 +11.2 90 +13 +15 1013.0 981.4
06 14.07 С 1 н/о н/о +16.1 +12.4 79 +17 +17 1012.6 981.4 +10.7 +20.2
07 14.07 С 4 н/о н/о +20.3 +11.3 56 +22 +22 комфорт 1012.8 982.0
08 14.07 С 4 н/о н/о +20.2 +11.5 57 +22 +22 комфорт 1012.9 982.1
09 14.07 С 5 н/о н/о +22.6 +11.8 50 +25 +25 комфорт 1012.6 982.1
10 14.07 С 6 н/о н/о +22.1 +10.1 46 +24 +24 комфорт 1012.5 981.9
11 14.07 С 4 н/о н/о +24.1 +10.5 42 +25 +25 комфорт 1012.0 981.6
12 14.07 С 5 40 км 3/3 1500 м
[Cu med, cong]
+25.0 +9.7 38 +26 +32 жарко 1011.5 981.2
13 14.07 С 4 н/о н/о +25.6 +10.0 37 +26 +26 жарко 1011.0 980.8
14 14.07 С 4 н/о н/о +26.5 +10.0 35 +27 +27 жарко 1010.8 980.7
15 14.07 С 5 н/о н/о +25.2 +10.2 39 +26 +26 жарко 1010.9 980.7
16 14.07 С 4 н/о н/о +21.8 +9.5 45 +23 +23 комфорт 1011.9 981.3
17 14.07 С 3 н/о н/о +22.6 +11.4 49 +25 +25 комфорт 1011.9 981.4
18 14.07 С 2 30 км 4/3 1500 м
[Cb calv Ac cuf Ci fib]
+21.8 +10.5 49 +24 +24 комфорт 1012.0 981.4 +14.2 +26.9
19 14.07 С 2 н/о н/о +19.9 +10.7 55 +22 +22 комфорт 1012.7 981.9
20 14.07 СЗ 1 н/о н/о +17.3 +11.2 67 +18 +18 1013.3 982.2
21 14.07 СЗ 1 н/о н/о +15.4 +11.5 78 +16 +16 1013.8 982.5
22 14.07 С 1 н/о н/о +17.0 +11.1 68 +18 +18 1013.8 982.7
23 14.07 С 2 н/о н/о +16.5 +11.0 70 +17 +17 1014.1 982.9
00 15.07 С 2 н/о н/о +15.2 +10.4 73 +15 +15 1014.2 982.9
01 15.07 СЗ 1 н/о н/о +13.7 +10.2 79 +14 +14 1014.0 982.5
02 15.07 С 3 н/о н/о +14.1 +10.5 79 +13 +13 1013.6 982.2
03 15.07 штиль 0 н/о н/о +11.8 +9.5 86 +11 +11 1014.0 982.3
04 15.07 С 1 н/о н/о +11.6 +9.7 88 +11 +11 1014.2 982.5
05 15.07 СЗ 1 20 км 1/1 1500 м
[Sc diur, vesp]
+14.0 +10.9 82 +14 +16 1014.1 982.6
06 15.07 С 2 н/о н/о +19.2 +11.6 61 +21 +21 комфорт 1013.9 983.0 +10.6 +21.8
07 15.07 С 4 н/о н/о +20.5 +11.2 55 +22 +22 комфорт 1014.0 983.2
08 15.07 С 5 н/о н/о +20.8 +8.7 46 +22 +22 комфорт 1013.9 983.1
09 15.07 СВ 3 н/о н/о +22.3 +9.2 43 +24 +24 комфорт 1013.5 982.9
10 15.07 СВ 3 н/о н/о +23.3 +7.9 37 +24 +24 комфорт 1013.4 982.9
11 15.07 СВ 3 н/о н/о +24.2 +8.7 37 +25 +25 комфорт 1013.3 982.9
12 15.07 В 4 30 км 3/3 1500 м
[Cu med, cong Ci fib]
+24.0 +8.8 38 +25 +33 комфорт 1013.1 982.7
13 15.07 СВ 5 н/о н/о +24.0 +8.4 37 +25 +25 комфорт 1012.9 982.5
14 15.07 СВ 2 н/о н/о +24.0 +7.5 35 +24 +24 комфорт 1012.8 982.4
15 15.07 СВ 1 н/о н/о +24.9 +6.6 31 +25 +25 комфорт 1012.6 982.3
16 15.07 СВ 2 н/о н/о +25.0 +6.9 31 +25 +25 комфорт 1012.3 982.0
17 15.07 СВ 3 н/о н/о +24.2 +5.8 31 +24 +24 комфорт 1012.4 982.0
18 15.07 СВ 2 40 км 1/1 1500 м
[Sc diur, vesp]
+22.8 +7.2 37 +24 +24 комфорт 1012.7 982.2 +18.7 +25.6
19 15.07 СВ 1 н/о н/о +20.5 +8.1 45 +23 +23 комфорт 1013.3 982.5
20 15.07 СВ 1 н/о н/о +18.8 +9.6 55 +21 +21 комфорт 1014.2 983.2
21 15.07 ЮВ 1 н/о н/о +14.3 +10.6 78 +15 +15 1015.0 983.5
22 15.07 штиль 0 н/о н/о +12.6 +9.9 84 +12 +12 1015.3 983.6
00 16.07 СЗ 1 н/о н/о +11.3 +9.5 89 +11 +11 1015.4 983.6
01 16.07 штиль 0 н/о н/о +11.1 +9.6 90 +10 +10 1015.3 983.5
02 16.07 штиль 0 н/о н/о +11.5 +10.0 90 +11 +11 1015.3 983.5
03 16.07 штиль 0 н/о н/о +11.5 +10.0 90 +11 +11 1015.2 983.4
04 16.07 СЗ 1 н/о н/о +11.1 +9.8 92 +11 +11 1015.1 983.3
05 16.07 С 1 30 км 1/0
[Ci fib]
+13.5 +11.2 86 +14 +16 1014.9 983.4
06 16.07 С 2 н/о н/о +18.7 +11.6 63 +20 +20 1014.4 983.4 +10.6 +23.1

 

Местоположение метеостанции Кляйнциккен (Австрия): широта 47.20 долгота 16.33 высота над уровнем моря 267 м.

В архиве по умолчанию представлена погода в Кляйнциккене за последнюю неделю. Архивные данные за месяц целиком и за предыдущие месяцы, начиная с января 2011 года, Вы можете получить, выбрав интересующий диапазон дат из раскрывающегося списка и нажав кнопку "Ввод!".


*Определитесь, кто Вы:
робот инопланетянин человек

Внимание! Время в таблицах - всемирное. Для получения местного времени необходимо прибавить поправку, которая равна 1 ч.

Смотрите также архив погоды в соседних городах и на ближайших метеорологических станциях:

Погода в Бад-Тацмансдорфе (Австрия) (17 км)
Погода в Сомбатхее (Венгрия) (24 км)
Погода в Хартберге (Австрия) (28 км)
Погода в Сентготтхарде (Венгрия) (31 км)
Погода в Крумбахе (Австрия) (38 км)
Погода в Луцмансбурге (Австрия) (39 км)
Погода в Мёнихкирхене (Австрия) (42 км)
Погода в Фельбахе (Австрия) (44 км)
Погода в Бад-Глайхенбере (Австрия) (49 км)
Погода в Залаэгерсеге (Венгрия) (51 км)

Пояснения к столбцам:

Ветер - указаны скорость ветра в м/с - средняя за 10 мин, порывы в срок и между сроками (в фигурных скобках) и направление, откуда дует ветер: С - северный, СВ - северо-восточный, В - восточный, ЮВ - юго-восточный, Ю - южный, ЮЗ - юго-западный, З - западный, СЗ - северо-западный.
Видимость - горизонтальная дальность видимости в метрах или километрах. При видимости от 1 до 10 км при отсутствии осадков обычно наблюдается дымка, при ухудшении видимости до 1 км и менее - туман. В сухую погоду видимость может ухудшаться дымом, пылью или мглою.
Явления - указаны атмосферные явления, наблюдавшиеся в срок или в последний час перед сроком; фигурными скобками обозначены явления, наблюдавшиеся между сроками (за 1-3 часа до срока); квадратными скобками обозначены град или гололедные отложения с указанием их диаметра в мм.
Облачность - указаны через наклонную черту общая и нижняя облачность в баллах и высота нижней границы облаков в метрах; квадратными скобками обозначены формы облаков: Ci - перистые, Cs - перисто-слоистые, Cc - перисто-кучевые, Ac - высококучевые, As - высокослоистые, Sc - слоисто-кучевые, Ns - слоисто-дождевые, Cu - кучевые, Cb - кучево-дождевые. Подробнее классификацию облаков см. в Атласе облаков (PDF).
T - Температура воздуха - температура, измеренная на высоте 2 м над землей.
Td - Температура точки росы - температура, при понижении до которой содержащийся в воздухе водяной пар достигнет насыщения.
f - Относительная влажность воздуха - влажноcть воздуха, измеренная на высоте 2 м над землей.
Te - Эффективная температура - температура, которую ощущает одетый по сезону человек в тени. Характеристика душности погоды. При расчете учитывается влияние влажности воздуха и скорости ветра на теплоощущения человека.
Tes - Эффективная температура на солнце - температура, которую ощущает человек, с поправкой на солнечный нагрев. Характеристика знойности погоды. Зависит от высоты солнца над горизонтом, облачности и скорости ветра. Ночью, в пасмурную погоду, а также при ветре 12 м/с и более поправка равна нулю.
P - Атмосферное давление - приведенное к уровню моря атмосферное давление.
Po - Атмосферное давление - измеренное на уровне метеостанции атмосферное давление.
Tmin - Минимальная температура - минимум температуры воздуха на высоте 2 м над землей.
Tmax - Максимальная температура - максимум температуры воздуха на высоте 2 м над землей.
R - Количество осадков - Количество выпавших осадков за период времени, мм. При наведении курсора мыши на число - период времени, за который выпало указанное количество осадков.
R24 - Количество осадков - Количество выпавших осадков за 24 часа, мм.
S - Снежный покров - Высота снежного покрова, см. При наведении курсора мыши на число - состояние снежного покрова и степень покрытия местности в баллах.